Other Surface Observations
Issued by NWS

Home | Current Version | Previous Version | Text Only | Print | Product List | Glossary On
Versions: 1 2 3 4 5 6 7 8 9 10 11 12 13 14 15 16 17 18 19 20 21 22 23 24 25 26 27 28 29 30 31 32 33 34 35 36 37 38 39 40 41 42 43 44 45 46 47 48 49 50
000
SXUS52 KTAE 060518
OSOTAE
OSOTAE
North Florida/South Alabama/Southwest Georgia Weather Roundup
National Weather Service Tallahassee Florida
100 AM EDT FRI MAY 06 2016

Note: "fair" indicates few or no clouds below 12,000 feet with no
significant weather and/or obstructions to visibility.

!FLZ017-115-028-034-025-060600
...North Florida...

CITY           SKY/WX    TMP DP  RH WIND       PRES   REMARKS
TALLAHASSEE    PTCLDY    56  43  61 CALM      29.87S
APALACHICOLA   PTCLDY    56  46  69 NW5       29.89S
PERRY          CLEAR     53  45  72 CALM      29.87S
CROSS CITY       N/A     55  41  59 CALM      29.86S
JACKSONVILLE   PTCLDY    56  42  59 SW3       29.83R
$$

!FLZ112-006-005-002-011-060600
...Florida Panhandle...

CITY           SKY/WX    TMP DP  RH WIND       PRES   REMARKS
MARIANNA       CLEAR     56  46  69 CALM      29.88R
BONIFAY        NOT AVBL
PANAMA CITY NW FAIR      54  46  74 W3        29.89R
TYNDALL AFB    CLEAR     61  46  57 NW7       29.89S
TYND DRONE APT FAIR      64  46  51 NW5       29.89S
DE FUNIAK SPR  FAIR      57  42  55 CALM      29.91S
EGLIN AFB      PTCLDY    57  42  57 NW8       29.91R
DESTIN         PTCLDY    68  48  48 NW5       29.91R
HURLBURT       PTCLDY    59  47  64 N5        29.91R
CRESTVIEW      CLEAR     50  44  80 CALM      29.93R
PENSACOLA      PTCLDY    62  43  49 NW6       29.92R
$$

!ALZ063-066-060600
...South Alabama...

CITY           SKY/WX    TMP DP  RH WIND       PRES   REMARKS
DOTHAN         CLEAR     56  42  59 NW6       29.93R
OZARK CAIRNS   CLEAR     57  44  61 NW7       29.89R
FT RUCKER HELI CLEAR     56  43  61 N5        29.89R
RUCKER HELI 3  FAIR      56  44  65 NW7       29.91R
RUCKER HELI 2  NOT AVBL
FLORALA APT    PTCLDY    53  44  71 CALM      29.93R
ANDALUSIA      PTCLDY    59  44  57 NW5       29.91R
TROY           CLEAR     55  44  66 N7        29.93R
EUFALA         FAIR      54  43  66 NW5       29.90R
MOBILE         PTCLDY    58  47  66 NW7       29.96R
$$

!GAZ120>161-060600
...Southwest and South Central Georgia...

CITY           SKY/WX    TMP DP  RH WIND       PRES   REMARKS
THOMASVILLE    FAIR      57  45  62 N8G17     29.89R
BAINBRIDGE     CLEAR     57  50  77 W6        29.88R
MOODY AFB      CLEAR     54  44  68 N6        29.86R
VALDOSTA       PTCLDY    57  45  64 N8        29.87R
MOULTRIE       PTCLDY    55  45  67 CALM      29.89R
BLAKELY        CLEAR     59  46  63 CALM      29.90R
ALBANY         CLEAR     56  44  64 N5        29.91R
TIFTON         FAIR      55  46  72 CALM      29.87R
FITZGERALD     FAIR      55  45  70 NW8       29.89R
CORDELE        FAIR      57  43  60 N8G18     29.89S
AMERICUS       FAIR      52  37  58 N9G16     29.91R
HOMERVILLE     FAIR      52  48  87 CALM      29.87R
$$

!GMZ750-755-770-775-060600
...Coastal and Buoy Obs...

STATION/POSITION TIME  TEMP    WIND        PRES    VSBY  WAVE
                       AIR SEA DIR/SP/G                  HT/PER
                 (UTC) (F)     (DEG/KT/KT) (MB)    (MI)  (FT/S)
KEATON BEACH     0500   63     320/  3/  4 1010.9F
CEDAR KEY        0500   63     360/  6/  9 1011.4R
C TOWER          0500   69     350/ 18/ 19 1012.2R
APALACHICOLA BUO 0450   72 74  360/ 21/ 23 1010.9R         5/ 6
PANAMA CITY BUOY 0450   73 78   10/ 17/ 23 1012.3R         5/ 6
MOBILE BUOY      0500   73 74  360/ 17/ 21 1013.5R
ORANGE BCH AL BU 0450   72 75  330/ 17/ 21 1012.5R         2/ 3
$$




USA.gov is the U.S. government's official web portal to all federal, state and local government web resources and services.